Location: Aranbee
(34.0885°N, 118.2342°W)
Time: 17:57:44
(UTC+00:00)

A-11 Canister half - Visible Passes

Search period start: 04 December 2020 00:00
Search period end: 14 December 2020 00:00
Orbit: 1516 x 1684 km, 47.2° (Epoch: 03 December)

Date Brightness Start Highest point End Pass type
(mag) Time Alt. Az. Time Alt. Az. Time Alt. Az.
04 Dec 9.7 01:10:36 10° WNW 01:20:36 64° SW 01:30:31 10° SE visible
04 Dec 11.4 03:19:05 10° W 03:24:16 15° WSW 03:29:27 10° SSW visible
05 Dec 11.4 02:55:35 10° W 03:01:25 17° WSW 03:07:15 10° SSW visible
06 Dec 11.4 02:32:11 10° W 02:38:35 19° WSW 02:44:57 10° SSW visible
07 Dec 11.4 02:08:52 10° W 02:15:44 21° SW 02:22:35 10° SSW visible
08 Dec 11.5 01:45:36 10° WNW 01:52:52 23° SW 02:00:08 10° S visible
09 Dec 11.5 01:22:22 10° WNW 01:30:00 25° SW 01:37:39 10° S visible
10 Dec 11.5 00:59:12 10° WNW 01:07:09 27° SW 01:15:06 10° S visible
10 Dec 10.8 14:07:54 10° S 14:16:03 35° SE 14:24:26 10° ENE visible
11 Dec 10.8 13:45:17 10° S 13:53:13 32° SE 14:01:21 10° ENE visible
12 Dec 10.9 13:22:42 10° S 13:30:22 29° SE 13:38:14 10° ENE visible
13 Dec 10.9 13:00:09 10° S 13:07:32 27° SE 13:15:05 10° ENE visible
